Weather History for Jackson, MN

Change the Weather History Date:

Friday, November 2, 2012

  Actual Average Record
Temperature  
Mean Temperature 36 °F -  
Max Temperature 41 °F 47 °F 75 °F (2005)
Min Temperature 30 °F 30 °F 15 °F (1996)
Degree Days  
Heating Degree Days 30    
Moisture  
Dew Point 26 °F    
Average Humidity 70    
Maximum Humidity 80    
Minimum Humidity 57    
Precipitation  
Precipitation 0.00 in - - ()
Sea Level Pressure  
Sea Level Pressure 30.07 in    
Wind  
Wind Speed 7 mph (ENE)    
Max Wind Speed 13 mph    
Max Gust Speed -    
Visibility 10 miles    
Events      
Averages and records for this station are not official NWS values.
T = Trace of Precipitation, MM = Missing Value Source: NWS Daily Summary

Daily Weather History Graph

Daily Weather History Graph

Search for Another Location

Airport:

Trip Planner

Search our weather history database for the weather conditions in past years. The results will help you decide how hot, cold, wet, or windy it might be!

Date:

Astronomy

Nov. 02, 2012 Rise Set
Actual Time 7:57 AM CDT 6:08 PM CDT
Civil Twilight 7:27 AM CDT 6:38 PM CDT
Nautical Twilight 6:53 AM CDT 7:12 PM CDT
Astronomical Twilight 6:20 AM CDT 7:46 PM CDT
Moon 8:52 PM CDT (11/2) 11:22 AM CDT (11/2)
Length of Visible Light 11h 10m
Length of Day
10h 11m
Waning Gibbous, 87% of the Moon is Illuminated
Nov 2
Waning Gibbous
Nov 6
Last Quarter
Nov 13
New
Nov 20
First Quarter
Nov 28
Full

Hourly Weather History & Observations

Time (CDT) Temp. Windchill Dew Point Humidity Pressure Visibility Wind Dir Wind Speed Gust Speed Precip Events Conditions
12:13 AM 30.2 °F 24.3 °F 24.8 °F 80% 30.04 in 10.0 mi NNE 5.8 mph - N/A   Clear
12:33 AM 30.2 °F 23.4 °F 23.0 °F 75% 30.05 in 10.0 mi NE 6.9 mph - N/A   Clear
12:53 AM 30.2 °F 22.6 °F 23.0 °F 75% 30.04 in 10.0 mi NE 8.1 mph - N/A   Clear
1:13 AM 30.2 °F 26.7 °F 23.0 °F 75% 30.05 in 10.0 mi NE 3.5 mph - N/A   Clear
1:33 AM 30.2 °F 24.3 °F 23.0 °F 75% 30.05 in 10.0 mi NE 5.8 mph - N/A   Clear
1:53 AM 30.2 °F 25.4 °F 23.0 °F 75% 30.04 in 10.0 mi NE 4.6 mph - N/A   Clear
2:13 AM 30.2 °F 26.7 °F 23.0 °F 75% 30.04 in 10.0 mi NE 3.5 mph - N/A   Clear
2:33 AM 30.2 °F 25.4 °F 23.0 °F 75% 30.04 in 10.0 mi NE 4.6 mph - N/A   Clear
2:53 AM 30.2 °F 25.4 °F 23.0 °F 75% 30.05 in 10.0 mi NE 4.6 mph - N/A   Clear
3:13 AM 30.2 °F 24.3 °F 24.8 °F 80% 30.04 in 10.0 mi ENE 5.8 mph - N/A   Clear
3:33 AM 30.2 °F 24.3 °F 24.8 °F 80% 30.04 in 10.0 mi ENE 5.8 mph - N/A   Clear
3:54 AM 32.0 °F 26.4 °F 24.8 °F 75% 30.03 in 10.0 mi ENE 5.8 mph - N/A   Clear
4:13 AM 30.2 °F 25.4 °F 24.8 °F 80% 30.04 in 10.0 mi ENE 4.6 mph - N/A   Clear
4:33 AM 30.2 °F 23.4 °F 23.0 °F 75% 30.03 in 10.0 mi ENE 6.9 mph - N/A   Clear
4:54 AM 32.0 °F 24.8 °F 23.0 °F 69% 30.03 in 10.0 mi ENE 8.1 mph - N/A   Clear
5:13 AM 32.0 °F 25.6 °F 23.0 °F 69% 30.04 in 10.0 mi ENE 6.9 mph - N/A   Clear
5:33 AM 30.2 °F 24.3 °F 23.0 °F 75% 30.04 in 10.0 mi East 5.8 mph - N/A   Clear
5:54 AM 30.2 °F 22.6 °F 23.0 °F 75% 30.03 in 10.0 mi East 8.1 mph - N/A   Clear
6:13 AM 30.2 °F 22.6 °F 23.0 °F 75% 30.04 in 10.0 mi East 8.1 mph - N/A   Clear
6:33 AM 30.2 °F 23.4 °F 23.0 °F 75% 30.04 in 10.0 mi East 6.9 mph - N/A   Clear
6:54 AM 30.2 °F 23.4 °F 23.0 °F 75% 30.04 in 10.0 mi East 6.9 mph - N/A   Clear
7:13 AM 30.2 °F 23.4 °F 23.0 °F 75% 30.04 in 10.0 mi East 6.9 mph - N/A   Clear
7:33 AM 30.2 °F 23.4 °F 23.0 °F 75% 30.05 in 10.0 mi East 6.9 mph - N/A   Clear
7:54 AM 30.2 °F 23.4 °F 23.0 °F 75% 30.05 in 10.0 mi East 6.9 mph - N/A   Clear
8:13 AM 30.2 °F 23.4 °F 24.8 °F 80% 30.06 in 10.0 mi East 6.9 mph - N/A   Clear
8:33 AM 30.2 °F 22.6 °F 24.8 °F 80% 30.07 in 10.0 mi East 8.1 mph - N/A   Clear
8:54 AM 32.0 °F 24.8 °F 24.8 °F 75% 30.07 in 10.0 mi East 8.1 mph - N/A   Clear
9:13 AM 32.0 °F 24.2 °F 26.6 °F 80% 30.07 in 10.0 mi East 9.2 mph - N/A   Clear
9:34 AM 32.0 °F 23.0 °F 26.6 °F 80% 30.07 in 10.0 mi East 11.5 mph - N/A   Clear
9:53 AM 32.0 °F 23.6 °F 26.6 °F 80% 30.08 in 10.0 mi East 10.4 mph - N/A   Clear
10:13 AM 33.8 °F 24.8 °F 26.6 °F 75% 30.08 in 10.0 mi East 12.7 mph - N/A   Clear
10:32 AM 33.8 °F 24.8 °F 26.6 °F 75% 30.08 in 10.0 mi ESE 12.7 mph - N/A   Clear
10:53 AM 33.8 °F 26.4 °F 26.6 °F 75% 30.08 in 10.0 mi ESE 9.2 mph - N/A   Clear
11:13 AM 35.6 °F 28.6 °F 26.6 °F 70% 30.09 in 10.0 mi ESE 9.2 mph - N/A   Clear
11:33 AM 35.6 °F 28.0 °F 26.6 °F 70% 30.10 in 10.0 mi ESE 10.4 mph - N/A   Clear
11:53 AM 35.6 °F 28.6 °F 26.6 °F 70% 30.10 in 10.0 mi SE 9.2 mph - N/A   Clear
12:13 PM 35.6 °F 28.6 °F 28.4 °F 75% 30.10 in 10.0 mi East 9.2 mph - N/A   Clear
12:33 PM 37.4 °F 31.4 °F 28.4 °F 70% 30.10 in 10.0 mi ESE 8.1 mph - N/A   Clear
12:53 PM 37.4 °F 30.8 °F 28.4 °F 70% 30.09 in 10.0 mi East 9.2 mph - N/A   Clear
1:13 PM 37.4 °F 30.8 °F 28.4 °F 70% 30.08 in 10.0 mi East 9.2 mph - N/A   Clear
1:33 PM 37.4 °F 31.4 °F 28.4 °F 70% 30.08 in 10.0 mi East 8.1 mph - N/A   Clear
1:53 PM 39.2 °F 34.2 °F 28.4 °F 65% 30.08 in 10.0 mi East 6.9 mph - N/A   Clear
2:13 PM 39.2 °F 33.6 °F 28.4 °F 65% 30.08 in 10.0 mi East 8.1 mph - N/A   Clear
2:33 PM 41.0 °F 35.2 °F 28.4 °F 61% 30.07 in 10.0 mi East 9.2 mph - N/A   Clear
2:53 PM 41.0 °F 35.2 °F 28.4 °F 61% 30.06 in 10.0 mi ESE 9.2 mph - N/A   Clear
3:14 PM 41.0 °F 34.7 °F 26.6 °F 57% 30.05 in 10.0 mi ESE 10.4 mph - N/A   Clear
3:33 PM 41.0 °F 33.9 °F 28.4 °F 61% 30.05 in 10.0 mi East 12.7 mph - N/A   Clear
3:54 PM 41.0 °F 35.2 °F 28.4 °F 61% 30.06 in 10.0 mi East 9.2 mph - N/A   Scattered Clouds
4:13 PM 41.0 °F 35.2 °F 28.4 °F 61% 30.05 in 10.0 mi East 9.2 mph - N/A   Mostly Cloudy
4:33 PM 41.0 °F 35.2 °F 26.6 °F 57% 30.06 in 10.0 mi East 9.2 mph - N/A   Overcast
4:54 PM 41.0 °F 35.2 °F 26.6 °F 57% 30.06 in 10.0 mi East 9.2 mph - N/A   Overcast
5:13 PM 41.0 °F 35.2 °F 26.6 °F 57% 30.06 in 10.0 mi East 9.2 mph - N/A   Overcast
5:33 PM 41.0 °F 36.4 °F 28.4 °F 61% 30.07 in 10.0 mi ENE 6.9 mph - N/A   Overcast
5:54 PM 41.0 °F 36.4 °F 28.4 °F 61% 30.07 in 10.0 mi ENE 6.9 mph - N/A   Overcast
6:13 PM 41.0 °F 35.8 °F 26.6 °F 57% 30.07 in 10.0 mi ENE 8.1 mph - N/A   Overcast
6:33 PM 41.0 °F 35.2 °F 26.6 °F 57% 30.07 in 10.0 mi East 9.2 mph - N/A   Overcast
6:53 PM 41.0 °F 36.4 °F 26.6 °F 57% 30.08 in 10.0 mi East 6.9 mph - N/A   Overcast
7:13 PM 41.0 °F 36.4 °F 26.6 °F 57% 30.09 in 10.0 mi East 6.9 mph - N/A   Overcast
7:33 PM 41.0 °F 36.4 °F 28.4 °F 61% 30.09 in 10.0 mi East 6.9 mph - N/A   Overcast
7:53 PM 39.2 °F 34.2 °F 28.4 °F 65% 30.09 in 10.0 mi East 6.9 mph - N/A   Overcast
8:13 PM 39.2 °F 35.0 °F 28.4 °F 65% 30.10 in 10.0 mi ENE 5.8 mph - N/A   Overcast
8:33 PM 37.4 °F 30.8 °F 28.4 °F 70% 30.10 in 10.0 mi ENE 9.2 mph - N/A   Overcast
8:53 PM 37.4 °F 32.1 °F 28.4 °F 70% - 10.0 mi ENE 6.9 mph - N/A   Overcast
9:13 PM 37.4 °F 32.8 °F 28.4 °F 70% 30.12 in 10.0 mi NE 5.8 mph - N/A   Overcast
9:33 PM 37.4 °F 32.8 °F 28.4 °F 70% 30.13 in 10.0 mi NNE 5.8 mph - N/A   Overcast
9:53 PM 37.4 °F 32.1 °F 28.4 °F 70% 30.12 in 10.0 mi NE 6.9 mph - N/A   Overcast
10:13 PM 37.4 °F 31.4 °F 28.4 °F 70% 30.13 in 10.0 mi NNE 8.1 mph - N/A   Overcast
10:33 PM 37.4 °F 31.4 °F 28.4 °F 70% 30.13 in 10.0 mi ENE 8.1 mph - N/A   Overcast
10:53 PM 37.4 °F 32.8 °F 28.4 °F 70% 30.13 in 10.0 mi ENE 5.8 mph - N/A   Overcast
11:13 PM 37.4 °F 31.4 °F 28.4 °F 70% 30.12 in 10.0 mi ENE 8.1 mph - N/A   Overcast
11:33 PM 37.4 °F 32.1 °F 28.4 °F 70% 30.13 in 10.0 mi ENE 6.9 mph - N/A   Overcast
11:53 PM 35.6 °F 30.7 °F 28.4 °F 75% 30.13 in 10.0 mi ENE 5.8 mph - N/A   Overcast